Regional Weather Roundup
Issued by NWS

Home | Current Version | Previous Version | Text Only | Print | Product List | Glossary Off
Versions: 1 2 3 4 5 6 7 8 9 10 11 12 13 14 15 16 17 18 19 20 21 22 23 24 25 26 27 28 29 30 31 32 33 34 35 36 37 38 39 40 41 42 43 44 45 46 47 48 49 50

000
ASUS43 KIND 311809
RWRIN

WEATHER ROUNDUP FOR INDIANA
NATIONAL WEATHER SERVICE INDIANAPOLIS IN
200 PM EDT FRI JUL 31 2015

NOTE: "FAIR" INDICATES FEW OR NO CLOUDS BELOW 12,000 FEET WITH NO
SIGNIFICANT WEATHER AND/OR OBSTRUCTIONS TO VISIBILITY.

* - STATION DOES NOT REPORT WEATHER SUCH AS PRECIPITATION OR FOG.

+ - STATION NOT QUALITY CONTROLLED BY THE NATIONAL WEATHER SERVICE.
    USE DATA WITH CAUTION...ESPECIALLY DEWPOINT AND RELATIVE
    HUMIDITY OBSERVATIONS.

INZ001>003-010>013-019-020-311900-
NORTHWEST INDIANA

CITY           SKY/WX    TMP DP  RH WIND       PRES   REMARKS
GARY /AIRPORT/ MOSUNNY   86  54  32 W18       29.98F
KNOX *+        MOSUNNY   84  63  48 W21       29.95F
LA PORTE +     SUNNY     85  61  45 NW15      29.98F
6HR MIN TEMP:  69; 6HR MAX TEMP:  87;

MICHIGAN CITY+ SUNNY     81  54  39 NW10G16   29.98F
MONTICELLO +   PTSUNNY   84  67  56 W12G20    30.00F
6HR MIN TEMP:  65; 6HR MAX TEMP:  86;

RENSSELAER +   MOSUNNY   86  64  48 W14G24    29.99F
VALPARAISO     PTSUNNY   85  64  49 NW7       29.98F
6HR MIN TEMP:  68; 6HR MAX TEMP:  86;


$$

LMZ046-743>745-311900-
SOUTHERN LAKE MICHIGAN

STATION/POSITION TIME  TEMP    WIND        PRES    WAVE
                       AIR SEA DIR/SP/G            HT
                 (UTC) (F)     (DEG/KT/KT) (MB)    (FT)
BURNS HARBOR     1700   77     320/  9/ 12 1015.9F
MICHIGAN CITY    1700   76     250/  9/ 10   N/A
5NW MICH CITY    1800   76 74  300/  6/  6   N/A     1

$$

INZ004-005-014>016-021>024-311900-
NORTH CENTRAL INDIANA

CITY           SKY/WX    TMP DP  RH WIND       PRES   REMARKS
ELKHART        SUNNY     84  59  42 W14G21    29.97F
GOSHEN         MOSUNNY   84  65  52 W17       29.95F
6HR MIN TEMP:  67; 6HR MAX TEMP:  85;

LOGANSPORT +   PTSUNNY   84  57  39 W16G25    30.00F
PERU/GRISSOM   SUNNY     86  65  49 W18G25    29.98F
6HR MIN TEMP:  67; 6HR MAX TEMP:  86;

ROCHESTER +    SUNNY     86  64  48 W10G24    29.97F
SOUTH BEND     SUNNY     84  61  45 W15G23    29.97F
6HR MIN TEMP:  68; 6HR MAX TEMP:  85;

WARSAW +       PTSUNNY   82  64  54 W18       29.96F

$$

INZ006>009-017-018-025>027-311900-
NORTHEAST INDIANA

CITY           SKY/WX    TMP DP  RH WIND       PRES   REMARKS
ANGOLA *+      MOSUNNY   84  64  51 W14       29.95F
AUBURN +       SUNNY     86  54  32 W14G22    29.96F
FORT WAYNE     MOSUNNY   85  59  41 W17G25    29.98F
6HR MIN TEMP:  69; 6HR MAX TEMP:  85;

HUNTINGTON +   MOSUNNY   84  61  45 W14G21    29.98F
6HR MIN TEMP:  67; 6HR MAX TEMP:  84;


$$

INZ028-029-035-036-043>045-051>053-311900-
WEST CENTRAL INDIANA

CITY           SKY/WX    TMP DP  RH WIND       PRES   REMARKS
CRAWFORDSVL +  SUNNY     82  57  42 W9          N/A
6HR MIN TEMP:  65; 6HR MAX TEMP:  82;

GREENCASTLE +  SUNNY     82  55  39 W3        30.06F
LAFAYETTE      MOSUNNY   85  67  54 W13       30.01F
6HR MIN TEMP:  65; 6HR MAX TEMP:  85;

TERRE HAUTE    SUNNY     88  64  44 W8        30.05F
6HR MIN TEMP:  69; 6HR MAX TEMP:  88;


$$

INZ030>032-037>040-046>048-054>057-064-065-311900-
CENTRAL INDIANA

CITY           SKY/WX    TMP DP  RH WIND       PRES   REMARKS
ANDERSON       SUNNY     84  48  28 W9        30.04
FISHERS *+     SUNNY     84  64  51 W13       30.03F
FRANKFORT +    SUNNY     85  67  53 SW13G18   30.05F
6HR MIN TEMP:  70; 6HR MAX TEMP:  85;

GREENWOOD *+   SUNNY     84  54  34 W10G17    30.05F
INDIANAPOLIS   MOSUNNY   86  58  38 W12       30.04F
6HR MIN TEMP:  71; 6HR MAX TEMP:  86;

-EAGLE CREEK   SUNNY     85  59  41 W9        30.04F
6HR MIN TEMP:  70; 6HR MAX TEMP:  85;

KOKOMO *+      MOSUNNY   86  63  45 W16       30.01F
6HR MIN TEMP:  68; 6HR MAX TEMP:  86;

MARION +       SUNNY     83  58  41 W13       30.01F
MT COMFORT *+  SUNNY     86  41  20 NW12      30.04F
SHELBYVILLE    SUNNY     87  59  38 NW9G17    30.03F
6HR MIN TEMP:  68; 6HR MAX TEMP:  87;

ZIONSVILLE +   SUNNY     84  59  43 W12G18    30.05F
6HR MIN TEMP:  69; 6HR MAX TEMP:  84;


$$

INZ033-034-041-042-049-050-058-059-311900-
EAST CENTRAL INDIANA

CITY           SKY/WX    TMP DP  RH WIND       PRES   REMARKS
MUNCIE         SUNNY     82  57  42 W13G23    30.02F
6HR MIN TEMP:  67; 6HR MAX TEMP:  83;


$$

INZ060-061-067>069-081>083-085>088-311900-
SOUTHWEST INDIANA

CITY           SKY/WX    TMP DP  RH WIND       PRES   REMARKS
EVANSVILLE     SUNNY     89  61  38 VRB6      30.08F
6HR MIN TEMP:  72; 6HR MAX TEMP:  89;

HUNTINGBURG *+ SUNNY     88  63  42 NE5       30.07F
6HR MIN TEMP:  66; 6HR MAX TEMP:  88;

WASHINGTON +   SUNNY     85  58  39 CALM      30.06F
6HR MIN TEMP:  67; 6HR MAX TEMP:  85;


$$

INZ062-063-066-070>080-084-089>092-311900-
SOUTH CENTRAL AND SOUTHEAST INDIANA

CITY           SKY/WX    TMP DP  RH WIND       PRES   REMARKS
BLOOMINGTON    SUNNY     85  61  44 W7        30.07F
6HR MIN TEMP:  68; 6HR MAX TEMP:  86;

MADISON *+     SUNNY     86  54  32 NW5       30.08F
NORTH VERNON + SUNNY     88  54  31 W6        30.06F
SEYMOUR +      SUNNY     88  61  40 W3        30.05F

$$



USA.gov is the U.S. government's official web portal to all federal, state and local government web resources and services.